User: anonymous   Login
Location: Ostrava
(49.8330°N, 18.2830°E)
Time: 20:23:36
(UTC+02:00)
Language:

NOAA 19 - Orbit

View from above orbital plane
View from above orbital plane
View from above satellite
View from above satellite

Ground track
Ground track

The orbit data is extracted from the following two-line orbital elements,

1 33591U 09005A   16150.52309337  .00000130  00000-0  95611-4 0  9990
2 33591  99.0385 107.1443 0012885 272.3800  87.5896 14.12076200376500
Epoch (UTC): 29 May 2016 12:33:15
Eccentricity: 0.0012885
inclination: 99.0385°
perigee height: 843 km
apogee height: 861 km
right ascension of ascending node: 107.1443°
argument of perigee: 272.3800°
revolutions per day: 14.12076200
mean anomaly at epoch: 87.5896°
orbit number at epoch: 37650

The dashed part of the orbit path shows where the satellite is in the earth's shadow,  

DLR